RH
15 18 20 23 25 28 28 29 31 29 26 26 33 39 36 30 26 24 27 33 32 27 24 25 25 26 26 25 25 25 25 24 22 20 19 20 21 22 23 25 27 31 36 39 41 41 41 40 40 40 41 43 43 41 37 35 33 31 29 28 26 26 26 24 22 20 17 15 16 24 36 43 49 56 57 55 53 53 56 58 59 62 64 66 64
11 12 13 16 20 24 26 28 29 29 28 28 32 37 37 33 29 26 28 34 35 30 25 25 25 26 27 27 27 26 25 24 23 20 20 21 21 22 22 25 28 32 36 40 43 44 45 45 44 42 41 42 44 45 44 41 37 34 31 30 29 27 28 27 26 24 22 20 17 16 23 31 40 52 57 55 51 51 54 57 59 60 62 67 67
7 7 8 10 13 18 22 25 28 30 32 33 34 37 38 38 35 29 30 36 37 32 26 24 25 25 26 28 27 27 26 25 23 21 21 21 21 21 22 24 28 31 35 40 43 45 47 49 48 48 46 45 46 47 48 48 45 40 35 32 31 29 29 29 29 28 26 24 23 19 17 18 27 44 57 60 58 58 59 58 58 60 62 64 67
8 6 7 7 9 13 15 19 25 29 33 36 37 37 38 42 42 35 34 39 40 35 28 24 25 25 25 26 27 28 27 26 24 22 21 21 21 21 22 24 27 30 34 38 42 45 48 50 51 52 52 52 52 52 52 52 50 47 42 36 32 30 30 29 30 30 29 27 26 25 23 18 17 26 44 59 61 59 60 62 61 59 61 61 63
10 6 7 7 8 10 13 16 22 27 33 37 38 37 39 47 50 44 41 43 42 38 31 26 24 24 24 25 26 27 28 27 25 23 21 21 21 21 22 24 26 28 32 36 40 43 46 49 51 53 54 55 57 57 56 54 53 52 48 41 35 32 30 30 30 31 31 30 28 26 25 23 19 16 22 38 52 58 59 61 64 64 62 61 61
11 6 7 7 8 11 13 16 21 26 30 32 33 33 36 46 54 51 45 43 43 41 36 30 26 25 24 24 25 27 28 27 25 24 23 23 21 21 23 24 26 27 30 33 37 42 46 48 50 52 54 56 59 60 60 57 55 54 50 43 38 34 31 30 30 31 31 30 30 29 27 24 23 20 16 20 34 52 62 61 62 65 65 62 60
13 8 7 7 8 9 11 14 18 22 25 27 29 31 33 38 47 50 45 41 43 43 40 36 31 27 24 23 25 28 29 28 26 25 24 23 21 21 23 24 26 27 28 32 36 42 47 48 50 53 54 56 59 63 63 60 57 54 49 43 38 35 33 32 32 31 31 30 29 29 29 27 25 22 19 16 18 31 55 68 69 71 69 64 63
16 11 6 6 7 7 8 10 13 17 22 25 27 30 32 34 40 46 43 41 45 45 44 43 38 32 26 24 25 28 30 28 27 26 23 22 21 22 23 24 25 25 27 31 36 41 46 49 52 54 55 57 61 65 66 64 59 53 47 41 37 35 33 33 33 32 31 29 29 28 28 29 27 25 20 17 14 13 29 51 66 77 78 72 68
17 10 6 8 9 9 10 9 10 13 15 19 22 28 34 35 37 41 39 39 45 47 45 47 45 39 32 27 26 28 29 27 26 25 22 22 22 23 24 24 24 25 27 30 35 40 45 50 53 54 56 60 64 66 66 64 59 52 45 40 37 35 34 33 33 33 31 29 28 28 28 28 28 28 24 18 15 11 13 20 33 54 74 80 77
18 11 9 11 12 12 12 9 9 9 11 14 17 23 32 37 37 37 35 38 46 49 47 48 49 46 39 31 28 28 26 25 24 23 22 22 23 23 24 24 24 25 27 31 36 40 45 49 53 54 57 63 67 66 63 62 58 51 43 39 36 35 34 34 33 31 30 28 27 26 27 28 27 28 27 22 17 14 13 12 12 21 45 70 82
20 13 11 14 15 15 13 10 8 8 9 11 13 19 28 36 38 36 36 42 48 49 48 49 51 51 45 35 30 27 25 24 23 23 23 23 24 24 24 25 25 26 29 34 38 42 46 49 53 57 61 65 67 65 62 61 57 49 41 36 35 35 35 34 33 30 28 26 26 26 25 26 26 26 27 26 23 19 14 13 11 9 17 41 67
22 17 15 16 18 17 13 9 8 8 9 9 11 17 25 33 38 38 40 46 50 49 49 51 54 55 49 39 32 27 25 24 24 23 24 24 25 25 26 26 27 30 34 38 42 44 47 50 57 64 67 66 66 65 64 62 55 46 38 35 33 34 34 32 30 28 26 24 23 23 24 24 24 25 26 27 27 24 20 16 13 10 9 20 45
24 20 19 19 21 20 14 9 7 7 9 10 11 17 24 30 37 40 43 48 51 51 52 54 58 59 53 42 33 28 26 26 26 26 26 26 27 27 29 31 33 37 40 42 44 46 51 60 66 69 69 68 68 68 65 59 51 43 37 35 34 33 32 30 27 24 21 20 19 19 20 21 22 23 24 25 26 26 24 22 17 12 10 13 27
26 23 22 23 25 23 14 8 8 8 9 12 13 17 22 27 35 42 46 50 54 56 57 60 65 64 56 44 35 31 29 29 29 30 30 30 31 32 34 36 39 41 43 45 48 54 64 71 73 72 72 72 71 68 62 52 44 40 37 35 34 32 29 26 22 18 14 13 14 14 15 16 19 22 23 23 25 26 25 24 20 15 12 10 14
28 26 25 27 29 26 15 9 10 10 9 13 17 21 25 31 39 47 52 57 62 65 67 70 72 68 58 47 39 34 32 32 33 33 34 34 35 37 38 39 41 43 46 51 58 66 74 77 77 76 75 72 69 62 53 45 40 38 36 35 32 27 22 18 14 11 9 8 9 11 12 12 13 17 21 22 23 25 25 24 22 18 15 12 9
32 31 29 31 33 27 15 10 12 12 10 13 20 26 31 35 42 51 58 64 71 75 76 78 76 70 61 51 44 39 36 35 35 35 36 36 37 38 39 40 43 47 53 60 68 74 77 78 77 74 71 67 62 53 45 41 38 37 35 32 27 19 13 10 9 8 7 6 7 9 11 13 13 13 16 19 21 22 24 25 23 19 17 15 12
37 35 33 36 38 31 18 13 15 15 14 15 19 27 31 31 34 45 57 65 72 77 79 80 79 75 69 61 54 49 44 41 40 39 38 38 38 39 41 43 48 54 62 67 72 75 76 76 73 69 66 60 52 46 42 39 38 36 33 26 17 11 8 8 8 9 10 8 8 9 11 13 14 14 13 15 17 19 22 24 23 21 17 14 13
44 39 40 44 43 35 22 16 18 22 22 20 19 22 26 27 28 35 44 55 66 75 77 79 81 81 78 74 69 63 59 55 51 47 45 44 43 44 47 52 57 62 67 71 73 75 74 71 67 63 58 51 46 43 40 39 38 33 25 16 9 7 6 7 8 10 12 11 10 10 11 13 14 14 14 14 15 16 18 21 23 22 19 15 12
55 45 45 48 47 40 28 20 23 29 32 30 27 23 22 26 33 35 35 38 46 54 60 64 70 75 79 80 78 75 73 69 64 60 57 56 55 57 60 63 66 69 71 73 74 72 69 65 61 56 50 45 43 41 40 39 33 23 13 7 6 6 6 7 8 10 10 11 11 10 10 12 12 12 13 13 14 14 16 18 21 22 20 17 12
71 66 57 51 49 47 38 31 30 34 40 40 35 31 27 28 35 37 36 34 33 34 37 42 47 53 58 62 64 66 68 67 66 63 61 60 61 63 64 66 67 69 70 69 67 64 62 58 54 49 45 43 42 41 40 32 19 10 6 6 7 7 8 8 8 9 10 9 10 10 10 10 10 11 11 12 13 13 15 16 18 22 20 16 15
64 70 65 55 50 49 45 43 41 43 48 46 39 36 36 35 34 34 34 33 29 28 29 31 34 38 41 44 46 49 51 52 52 51 49 50 52 55 57 58 61 63 62 60 58 57 55 52 48 45 43 43 43 41 31 17 7 6 6 8 9 9 9 9 9 9 9 9 9 9 9 9 9 9 9 10 11 12 14 16 15 19 20 17 19
45 52 54 53 50 46 43 42 43 46 50 51 44 40 40 41 40 40 39 35 32 33 34 36 38 41 43 44 43 43 43 44 44 44 44 46 48 51 53 54 55 56 55 54 54 53 49 47 44 44 45 45 42 31 16 6 5 7 9 10 11 10 10 10 10 10 9 9 9 9 9 8 8 8 8 8 9 10 12 15 15 17 19 17 21
50 48 48 51 52 51 50 50 52 54 57 58 53 46 41 42 46 51 51 47 44 41 41 44 46 47 49 51 47 43 42 43 44 44 46 47 49 50 51 51 52 52 53 52 51 48 46 45 44 46 48 43 30 15 6 5 7 9 11 12 12 12 12 11 10 10 9 9 8 8 7 7 6 6 6 6 6 8 9 11 14 15 18 17 15
44 42 48 56 60 64 67 69 68 66 66 67 63 55 48 42 44 50 53 53 53 51 49 50 51 51 53 53 48 44 44 45 45 46 47 48 50 51 50 50 51 51 50 48 47 46 46 45 48 49 42 27 12 5 6 9 11 12 12 13 13 13 12 11 11 10 9 9 8 8 7 7 7 5 5 5 4 5 7 8 11 12 17 20 13
35 37 43 47 49 55 60 64 67 68 68 69 67 66 63 58 55 55 55 56 59 60 59 56 55 53 52 51 48 45 45 45 45 46 48 50 51 50 49 49 49 48 47 46 46 47 47 49 50 41 24 10 5 8 11 12 13 14 14 14 14 13 12 11 11 10 11 11 11 11 10 10 10 8 7 7 5 4 5 6 9 11 15 18 16
37 39 38 38 40 47 49 50 55 58 60 63 69 75 76 71 68 66 65 64 65 67 67 65 61 57 53 50 48 46 47 47 47 48 50 51 50 49 48 48 48 47 47 47 48 49 52 50 38 20 8 7 11 13 14 14 15 16 17 16 15 14 13 12 12 12 13 14 13 13 13 12 12 11 10 9 8 6 5 5 7 10 14 17 17
38 40 40 40 42 44 43 43 44 46 48 52 59 66 68 69 71 71 71 72 71 70 71 72 70 62 54 51 50 49 50 50 50 51 52 51 50 49 48 48 48 48 49 50 52 53 48 33 16 7 8 13 15 15 15 16 17 19 19 19 18 16 14 13 12 13 14 15 16 15 15 14 13 12 11 10 10 9 7 6 7 10 16 18 18
38 41 41 41 42 42 42 42 43 43 44 45 46 52 61 69 71 69 71 76 74 68 68 72 70 60 52 53 55 53 52 53 54 53 53 52 51 50 50 49 49 50 52 54 52 43 28 13 7 10 14 16 16 15 16 17 19 21 21 21 21 18 16 15 13 14 15 16 17 17 16 17 15 14 13 11 10 10 8 7 7 10 17 22 22
40 41 40 40 40 40 40 41 42 42 43 44 46 50 58 64 66 66 69 72 69 65 66 70 67 59 57 62 63 59 56 56 55 55 55 54 53 52 50 49 51 54 55 49 36 20 10 8 12 15 16 17 17 16 17 20 21 22 23 24 23 22 19 17 15 15 17 18 18 18 18 19 19 17 15 12 10 9 8 9 11 11 15 21 24
37 36 35 36 37 38 42 44 45 43 42 45 49 54 60 65 68 69 69 67 64 64 69 72 71 67 67 71 73 68 63 60 59 59 58 56 55 52 49 51 56 56 46 29 14 8 9 13 16 17 18 18 18 18 19 20 21 23 25 25 25 24 22 19 17 17 18 19 20 21 21 23 23 22 19 14 11 10 8 9 14 15 14 17 23
30 30 30 33 38 43 47 49 50 51 51 50 52 57 64 68 69 70 69 66 62 63 70 76 77 77 76 77 78 76 71 68 66 65 63 59 56 52 53 57 55 40 23 12 9 12 16 19 18 18 19 20 20 22 21 22 22 24 26 26 25 25 24 21 19 18 20 22 24 26 28 29 29 27 24 17 12 11 9 9 12 16 16 18 24
31 33 34 38 45 51 54 56 59 60 60 61 63 67 71 71 70 69 69 66 63 65 74 80 81 81 80 79 80 79 76 73 71 70 65 59 56 57 59 55 36 17 10 12 16 19 19 21 21 21 22 24 24 24 24 24 24 25 28 29 27 27 26 23 21 21 24 28 32 35 38 38 37 34 31 26 18 13 10 9 11 13 15 20 28
36 39 43 47 52 57 60 62 64 64 68 75 80 80 79 76 73 71 70 70 73 77 83 85 84 83 82 79 78 79 79 77 74 70 63 58 61 61 51 33 16 11 16 18 20 23 23 24 25 25 25 25 25 26 26 25 26 28 31 32 30 29 27 24 24 26 31 35 39 43 45 46 47 45 43 40 35 28 21 14 13 11 9 15 25
32 35 41 47 52 57 59 61 65 69 73 78 78 77 80 82 79 76 76 79 85 89 88 86 83 81 79 76 76 81 83 80 73 66 61 63 63 48 26 15 14 17 21 22 24 25 25 26 27 26 26 26 25 26 26 27 29 32 34 35 33 30 28 27 30 35 40 43 45 47 49 51 53 55 55 54 51 48 41 31 24 19 12 10 15
28 29 36 46 53 57 57 58 64 68 70 73 74 76 83 85 80 78 82 87 89 86 80 75 75 76 75 76 81 84 80 73 69 66 63 60 47 26 14 16 20 21 22 23 24 24 25 27 27 27 26 25 24 26 28 30 34 36 37 36 33 31 32 35 41 46 48 49 49 51 53 57 59 59 60 63 61 59 56 47 38 31 22 16 13
33 34 42 51 56 58 60 63 66 68 71 77 81 83 85 86 85 87 88 83 78 74 71 72 79 82 82 80 81 77 71 69 68 59 47 37 24 15 17 21 21 22 23 23 23 25 25 25 25 26 26 24 24 27 30 33 36 38 37 36 37 40 44 49 54 56 56 55 54 56 59 63 69 69 67 69 69 67 65 61 53 45 35 25 17
52 53 56 60 61 63 65 66 67 71 76 83 90 94 94 94 93 90 83 74 71 71 73 78 83 83 80 76 73 71 68 64 53 35 22 18 17 17 21 21 21 22 23 23 25 24 23 23 24 25 26 25 25 29 34 37 38 40 42 46 52 56 58 59 60 60 59 58 57 58 62 67 71 74 74 73 72 69 66 64 62 59 49 35 21
76 75 73 71 71 72 73 74 80 87 92 94 98 97 92 88 85 81 76 73 72 75 77 79 79 76 73 71 66 59 51 39 26 18 16 18 20 20 21 21 22 23 22 23 23 21 22 24 24 25 27 29 30 34 38 39 40 48 58 65 67 67 65 64 64 64 63 63 62 61 63 65 66 68 70 71 71 69 66 63 62 63 60 47 29
74 75 75 75 76 80 83 85 86 86 84 84 84 80 75 74 74 74 74 75 75 77 77 76 73 71 65 55 42 32 24 20 18 19 21 21 20 21 21 23 25 25 24 23 23 23 23 24 26 30 33 34 33 34 39 45 53 64 70 70 69 68 68 70 72 71 69 69 68 66 65 66 66 67 69 71 71 72 70 66 64 64 62 55 41
59 57 58 59 62 66 68 66 62 59 62 66 70 72 71 70 70 69 70 72 73 72 71 71 69 63 49 33 23 19 20 22 23 23 22 22 21 22 24 26 27 27 26 26 26 27 27 27 31 32 32 34 37 42 51 60 67 70 71 73 75 77 79 82 81 77 74 71 69 68 67 67 69 71 70 69 69 70 71 70 69 68 63 58 53
49 47 47 47 47 48 47 44 41 44 53 61 67 71 71 69 67 67 66 67 69 69 70 67 59 45 32 23 22 24 25 25 24 23 22 21 22 24 25 26 27 28 28 29 30 31 30 30 31 33 37 44 51 56 63 68 71 74 79 85 87 84 84 86 81 76 75 72 68 65 64 64 68 71 72 70 67 66 67 68 70 71 69 65 64
36 37 39 41 42 42 41 39 39 43 53 63 69 70 69 68 67 68 69 71 70 66 59 49 37 29 26 27 26 26 25 24 24 23 22 22 23 25 26 28 29 30 32 32 32 32 31 32 36 43 50 56 61 66 71 75 78 81 82 84 83 79 80 81 77 73 73 72 69 65 62 61 63 66 69 71 70 67 64 64 66 72 76 73 69
30 34 38 41 43 44 44 44 48 55 63 70 72 73 74 74 73 72 70 65 56 46 37 32 30 29 28 27 26 25 25 24 24 23 22 23 26 28 30 32 33 33 33 32 32 34 38 44 49 53 57 63 70 76 79 81 81 80 79 79 78 76 78 79 76 73 72 73 72 69 66 64 64 64 66 67 69 69 66 65 65 70 76 75 71
41 49 55 58 60 64 67 69 73 79 82 82 82 81 77 70 63 56 51 45 38 34 34 34 33 31 28 26 26 26 25 24 23 22 24 28 32 34 35 35 35 34 33 35 40 48 55 58 59 60 66 73 78 80 81 83 84 81 79 78 77 76 77 77 75 71 69 70 70 68 68 67 66 65 65 66 67 67 67 69 69 68 71 74 74
61 58 60 62 69 78 87 94 96 95 93 87 82 75 62 50 42 38 37 38 38 38 39 37 34 31 29 28 26 24 22 21 21 26 33 37 37 37 36 34 33 35 40 49 59 66 67 66 67 72 78 81 82 84 86 86 85 83 79 77 76 75 74 75 73 70 68 69 70 71 74 74 71 68 67 67 68 66 66 70 72 70 71 74 74
62 58 57 60 72 85 95 99 96 89 81 72 64 56 47 41 38 38 39 41 41 40 38 35 32 29 27 23 20 18 18 20 27 37 42 40 37 35 34 33 38 49 63 73 77 76 74 75 81 85 87 86 87 89 88 85 81 79 75 72 72 71 74 80 81 77 76 79 82 85 87 85 80 76 73 71 70 69 69 72 75 72 70 70 70
70 70 73 78 87 96 98 92 82 71 61 55 51 49 47 43 42 42 42 40 38 36 31 26 23 21 18 16 14 13 17 26 38 45 42 37 35 34 36 45 60 75 84 85 83 82 83 88 91 91 89 90 91 90 86 81 77 73 70 71 75 79 85 90 88 82 79 80 85 90 96 97 93 86 81 78 75 73 72 73 77 76 69 65 67
81 82 86 88 92 96 92 82 70 60 54 52 51 50 48 46 44 42 40 36 30 23 18 15 13 12 12 14 14 17 27 39 46 45 38 35 37 43 54 70 84 90 89 86 87 89 92 94 95 93 92 92 90 85 82 77 73 73 77 83 87 90 91 88 82 79 79 79 80 82 87 97 100 91 80 76 75 75 71 69 77 81 73 65 67
77 83 89 89 89 88 83 73 63 57 54 52 51 50 48 45 41 36 30 24 17 11 9 9 9 10 14 19 24 31 41 48 46 39 37 41 49 62 76 87 93 95 95 94 94 95 95 95 95 95 94 90 84 80 79 77 76 82 92 97 95 91 89 83 76 79 86 87 85 81 79 87 95 91 80 75 76 79 75 70 77 86 78 68 66
74 81 88 90 87 81 76 68 60 56 54 52 51 50 43 35 28 22 17 13 8 8 10 11 12 17 24 31 39 47 51 48 41 37 43 56 70 85 94 94 92 93 94 96 98 99 98 97 97 95 93 89 82 77 75 77 82 89 96 98 94 86 81 76 73 81 95 97 93 90 85 85 89 88 81 77 78 81 79 75 79 87 82 69 65
87 87 86 86 84 76 69 62 57 55 55 52 47 39 28 19 14 10 8 8 7 9 14 16 20 30 40 47 52 54 50 43 40 45 56 69 83 94 96 91 87 86 91 97 100 98 96 98 98 93 89 85 80 76 75 81 89 93 91 88 84 78 75 75 78 89 97 94 91 94 94 92 93 90 83 79 82 84 82 77 79 87 82 68 63
Wind_Speed
20 23 24 24 25 25 25 24 23 23 23 23 25 24 23 23 26 25 24 22 21 21 21 20 20 19 19 18 17 17 16 15 15 13 12 12 12 11 10 9 8 8 8 10 11 12 14 16 18 20 21 21 22 22 23 24 25 25 25 25 24 23 24 25 25 24 22 21 20 19 18 18 18 17 16 16 17 17 17 17 16 16 16 17 17
19 21 22 23 24 25 25 24 24 23 24 25 28 29 26 24 25 26 25 24 23 22 22 22 22 20 20 19 19 19 19 17 16 15 14 14 14 13 12 11 11 10 10 11 12 13 15 17 20 22 24 26 26 25 25 25 26 27 27 27 27 26 25 26 26 25 24 24 23 20 18 18 19 18 17 17 17 17 17 17 17 17 16 17 17
18 19 19 20 21 22 23 24 24 25 26 27 30 32 30 26 25 26 26 25 24 23 23 24 23 22 22 22 22 21 20 18 17 17 17 16 15 15 14 13 13 12 12 12 13 15 16 18 21 23 25 28 29 30 29 28 28 28 29 29 30 30 29 28 28 27 26 26 25 24 22 20 18 17 17 17 18 17 18 18 18 17 17 17 18
15 16 16 16 17 18 20 21 23 25 26 29 31 33 32 28 25 26 26 26 26 25 25 25 24 23 24 24 24 22 21 20 20 20 18 18 17 17 16 16 15 15 15 15 15 16 18 20 22 24 26 29 31 33 33 32 31 31 31 31 32 32 31 31 30 30 29 28 28 27 26 24 21 19 18 17 17 18 18 19 19 18 17 17 18
13 13 13 14 14 15 16 18 21 23 26 29 30 30 30 27 26 27 28 28 28 27 26 26 25 24 25 25 25 24 24 23 23 21 20 20 20 19 19 18 17 17 17 17 18 19 21 23 25 26 28 30 32 34 35 36 35 34 34 33 33 34 33 33 32 31 31 30 29 29 29 28 25 23 21 18 17 17 17 18 19 19 18 17 18
12 11 12 12 13 13 15 18 20 22 23 25 26 26 26 26 27 29 30 31 31 29 27 27 26 25 25 25 25 26 25 24 23 21 21 22 21 21 21 20 19 19 19 20 21 23 24 26 27 30 31 32 33 35 37 37 37 37 36 35 35 35 35 35 34 33 32 31 30 30 30 30 29 27 26 23 19 17 18 18 18 20 20 19 18
11 10 11 10 11 12 14 16 18 19 20 21 22 21 22 24 27 30 32 32 32 30 28 27 25 25 25 26 26 26 25 23 23 23 23 24 24 23 23 22 21 21 21 22 24 25 27 28 29 32 34 35 36 37 38 38 38 39 38 38 37 36 36 36 36 35 33 33 32 31 30 30 31 30 30 28 24 20 17 17 18 19 20 20 18
11 10 9 8 8 9 12 15 17 17 18 19 19 18 18 21 25 30 32 32 31 31 29 27 25 25 25 26 26 26 25 25 25 25 26 26 26 25 25 24 24 24 24 25 26 27 28 29 31 33 35 36 37 38 39 39 39 39 39 39 38 38 38 38 38 37 35 33 32 32 31 30 30 31 31 31 30 26 20 18 18 19 20 21 20
12 10 8 7 7 9 12 15 17 18 18 19 18 17 17 19 23 29 31 30 30 31 29 27 26 25 25 26 26 26 27 27 27 28 28 27 27 27 27 27 26 27 27 28 28 29 30 31 33 35 36 38 39 40 41 41 40 40 39 39 39 39 39 39 39 39 37 35 33 32 32 31 30 31 32 32 33 32 28 22 21 22 22 22 22
14 11 9 8 8 9 12 15 17 18 18 17 16 16 17 18 21 27 29 29 30 32 30 28 26 25 25 25 26 28 29 29 29 29 29 29 28 28 28 28 28 28 29 30 31 32 33 34 36 38 39 40 41 42 43 42 42 41 40 40 40 39 39 40 40 39 39 37 36 34 33 33 32 31 31 32 33 35 33 28 24 25 25 23 22
16 13 11 10 10 11 12 14 15 15 16 16 15 14 15 17 20 24 27 29 31 32 30 28 26 25 25 26 28 29 30 30 30 29 29 30 29 29 29 29 30 31 32 33 34 36 37 38 39 42 43 43 43 45 45 44 44 44 43 43 42 41 40 40 39 39 39 38 38 38 36 34 34 33 32 32 33 35 35 33 28 26 27 26 23
20 18 15 12 13 14 12 11 11 12 13 15 16 14 14 16 19 23 27 29 31 31 30 28 26 25 25 27 29 30 31 31 31 31 31 31 31 31 31 31 32 33 35 36 38 39 40 41 43 45 45 45 45 46 46 46 46 46 46 45 45 45 43 42 40 39 39 39 39 40 39 37 36 35 34 34 33 34 35 36 32 28 28 27 26
25 22 17 14 15 16 12 8 8 9 11 14 15 15 14 14 16 21 26 28 30 30 29 28 25 25 25 28 30 31 32 32 32 33 33 32 32 32 33 34 35 36 37 39 40 41 42 44 45 45 44 45 45 46 46 46 46 46 46 46 46 45 45 44 43 42 42 41 40 40 41 41 39 37 36 36 35 34 35 36 35 32 30 28 27
27 23 18 15 17 16 12 8 6 7 10 13 14 15 15 14 14 17 22 25 27 28 27 26 25 25 26 28 30 32 33 34 34 34 34 35 35 35 36 37 38 39 39 40 41 42 44 45 45 44 44 45 45 45 45 45 45 45 45 45 45 45 45 45 44 43 43 42 42 40 40 40 41 39 38 36 36 36 35 35 36 35 33 30 28
28 23 19 18 18 16 12 9 6 6 8 12 14 14 14 15 14 14 17 21 24 25 26 25 24 25 27 29 31 32 34 35 36 36 37 37 38 38 38 39 40 40 40 41 42 43 44 44 45 45 46 45 45 45 45 45 45 45 45 45 45 44 44 43 42 41 40 40 41 41 39 38 39 40 40 38 36 36 36 35 36 37 36 33 30
29 25 23 21 18 16 13 11 8 7 8 12 14 14 14 15 15 15 16 19 22 24 24 24 25 26 28 29 31 33 35 36 37 37 38 39 40 40 40 41 41 41 42 42 43 44 44 45 46 46 46 45 45 45 45 45 45 46 46 45 45 43 42 41 39 38 37 37 38 40 39 37 36 37 39 39 37 36 36 36 36 37 37 36 33
31 28 24 21 19 18 15 13 11 9 9 12 15 15 15 15 16 17 18 20 22 23 23 24 25 26 28 30 31 33 34 36 37 38 40 41 42 42 42 43 43 43 43 44 45 46 47 48 47 46 46 46 46 46 46 46 46 46 46 46 43 41 40 40 38 37 36 36 36 38 39 38 35 35 36 37 37 36 36 36 36 36 37 38 37
33 28 23 21 22 21 19 16 14 12 12 13 15 17 18 17 17 18 19 21 21 22 23 24 25 26 27 29 30 32 34 36 38 39 41 42 42 43 44 44 45 45 45 46 47 48 48 47 47 47 47 46 46 46 46 46 47 47 45 44 42 40 40 40 38 37 36 36 36 36 37 37 35 33 33 34 36 36 35 35 36 36 36 37 38
30 26 24 26 25 24 23 20 18 17 16 15 16 19 21 20 19 19 20 21 20 21 22 23 24 25 27 28 30 32 34 36 38 40 41 42 43 44 45 45 45 46 46 47 47 47 47 47 47 47 47 46 46 46 47 47 47 45 43 41 40 40 39 39 39 38 37 36 36 36 36 35 34 32 32 32 33 34 34 34 35 36 36 36 37
29 25 25 28 28 27 27 26 24 22 20 19 21 24 24 23 22 21 21 21 20 20 21 21 22 23 25 27 29 32 34 36 38 39 40 41 42 43 43 44 45 45 45 45 45 46 46 46 46 46 46 46 46 46 47 47 45 43 41 39 39 39 39 39 39 38 38 38 38 37 36 35 33 32 32 31 31 32 33 34 34 35 35 36 35
27 25 26 30 31 30 30 29 28 27 24 23 24 26 25 25 25 25 24 24 23 23 23 24 24 25 26 28 30 32 34 35 37 38 39 40 41 42 42 43 44 43 44 44 45 45 45 46 46 46 46 46 47 48 47 45 43 41 39 39 38 38 39 39 39 39 39 39 40 40 39 38 36 34 33 32 31 32 32 33 35 35 35 36 35
22 21 24 30 32 30 31 32 32 31 29 26 25 26 26 27 28 28 28 27 26 25 26 27 27 28 30 32 34 35 36 37 38 39 40 41 40 41 41 41 41 42 43 44 44 45 45 46 46 47 47 48 49 48 46 44 41 39 38 38 38 38 39 40 40 40 40 41 42 42 42 41 40 39 37 34 32 32 33 34 35 35 35 35 35
21 22 23 27 30 32 33 34 33 32 31 29 28 27 27 29 31 32 31 30 28 27 28 29 30 32 34 36 36 37 37 38 39 39 39 38 38 37 38 39 40 42 43 44 45 46 47 47 48 49 50 50 50 47 45 42 40 39 38 38 38 39 40 40 41 41 41 42 43 43 43 42 41 41 41 38 34 32 33 35 34 35 36 36 35
24 26 26 27 31 34 36 36 34 33 32 32 31 29 29 31 33 35 35 34 33 32 31 32 32 35 37 39 38 38 38 39 38 38 36 35 35 36 38 40 42 44 45 46 47 48 49 49 50 51 51 50 47 44 42 40 39 38 38 38 39 39 39 40 41 41 41 42 42 42 42 41 40 41 41 40 37 33 33 35 35 35 37 37 35
24 25 27 29 32 33 33 33 33 33 34 35 34 32 32 31 32 35 37 37 37 37 36 36 36 37 39 40 40 40 40 40 39 38 36 36 37 39 41 43 45 46 46 48 49 50 51 52 52 52 50 47 44 41 40 38 38 38 38 38 38 38 39 39 40 40 41 41 41 41 41 41 40 40 40 40 39 36 32 33 36 36 36 37 36
22 24 27 29 28 27 28 31 34 34 35 37 36 34 32 30 31 34 36 37 38 39 39 39 39 39 40 40 40 41 42 41 40 39 38 39 40 42 44 45 46 47 48 50 51 52 54 54 53 50 47 43 40 38 38 37 37 36 36 37 37 38 39 39 39 40 40 40 41 41 41 42 42 42 42 41 40 40 35 32 35 37 36 37 37
23 23 26 28 28 29 31 34 35 36 37 39 38 37 37 37 37 36 35 36 38 41 43 41 40 41 40 39 40 41 42 42 40 40 41 42 43 44 45 46 47 48 50 52 54 55 55 54 51 47 43 40 38 37 37 37 36 36 35 36 37 38 39 39 40 40 40 41 41 42 42 42 43 43 44 42 41 42 40 34 34 37 37 37 38
22 22 26 28 31 34 37 38 39 41 42 42 42 41 41 42 42 39 37 37 38 41 43 42 42 43 41 39 39 40 42 42 41 42 44 45 46 46 46 47 49 51 53 55 56 56 54 51 48 45 42 39 38 38 37 36 36 36 36 36 37 38 39 40 41 41 41 41 42 42 43 43 43 44 44 43 40 41 43 39 34 36 38 38 38
23 25 28 30 33 35 37 38 39 40 41 43 43 42 41 41 43 43 42 41 42 42 42 43 43 43 43 43 42 41 41 42 43 44 46 47 47 48 48 49 51 53 55 56 56 54 51 48 45 44 41 40 39 38 37 37 37 37 37 38 39 40 41 41 42 42 42 42 42 43 43 43 44 44 44 43 40 39 42 42 36 36 39 40 38
28 31 33 35 36 36 35 36 37 38 39 41 42 43 42 41 42 43 44 45 45 43 42 43 44 45 46 46 45 43 42 43 44 45 47 48 49 50 51 52 54 55 55 55 53 50 48 46 45 43 42 41 40 39 38 39 39 39 40 40 41 41 42 42 42 42 42 43 43 43 43 43 44 45 44 43 41 39 40 41 37 34 38 41 40
33 35 36 37 36 35 35 36 37 37 38 40 42 43 41 41 43 45 45 46 46 44 44 46 47 47 47 47 46 45 45 45 46 46 48 50 52 53 54 55 56 55 53 51 49 47 46 45 44 44 43 42 41 41 41 41 42 42 42 43 43 43 42 42 42 42 43 43 43 43 43 43 43 44 43 42 41 39 39 40 38 34 35 40 41
34 34 34 34 33 33 34 34 36 38 39 40 40 40 40 42 45 46 47 48 47 46 46 48 48 49 50 50 47 44 45 47 47 48 50 53 55 56 56 56 55 52 49 47 46 46 46 45 45 45 44 43 43 43 44 44 44 44 43 44 44 43 43 43 43 43 43 43 42 42 41 41 40 40 40 39 39 39 38 39 39 35 34 38 39
32 32 32 32 32 33 34 35 37 40 40 36 34 37 40 43 46 48 50 50 48 48 49 50 50 51 51 49 46 44 45 47 48 50 54 56 57 57 56 54 52 49 47 46 45 46 46 46 46 46 45 45 46 46 46 46 45 45 44 43 43 43 43 43 43 43 43 41 41 41 41 40 39 37 36 35 35 35 36 37 39 37 34 36 38
35 35 34 34 35 36 37 39 40 40 39 35 36 41 45 46 47 49 50 49 49 51 52 50 49 49 48 47 46 46 46 48 51 54 57 59 59 57 55 52 49 47 46 46 46 46 47 47 47 47 47 47 48 48 47 46 45 44 42 41 42 43 43 44 44 43 42 41 40 40 41 41 40 38 37 35 34 33 34 35 37 38 36 36 38
41 41 38 36 35 37 40 41 41 42 42 43 44 46 47 48 49 51 52 52 52 50 48 45 45 47 46 45 46 46 47 51 55 58 59 59 58 55 52 49 47 46 46 47 47 47 47 48 48 49 49 50 49 48 46 45 44 42 41 40 41 42 42 43 43 42 42 42 41 41 42 42 41 39 37 35 34 33 34 35 36 38 37 35 37
43 41 39 36 36 38 39 39 39 41 43 45 46 47 49 51 51 50 48 46 43 42 42 44 47 47 46 46 47 49 52 56 58 58 58 56 53 51 49 47 46 46 47 47 48 48 48 49 50 50 50 51 50 48 45 44 43 41 40 39 40 41 42 43 43 43 43 44 44 44 44 43 42 40 38 36 34 34 35 37 38 38 38 37 36
38 38 36 36 36 37 38 39 40 42 44 45 45 46 47 45 43 40 36 37 40 43 45 47 48 48 48 50 52 54 56 57 57 56 53 51 49 47 46 46 46 46 47 48 48 49 49 50 50 50 49 50 48 46 44 42 40 38 37 38 40 41 42 43 44 44 44 44 44 44 45 45 44 42 41 39 38 37 38 40 40 40 39 39 38
30 32 34 36 37 37 38 38 37 37 38 38 37 36 34 33 35 37 40 44 46 47 47 47 48 50 51 52 53 54 55 54 52 50 48 47 46 46 46 46 46 47 48 48 49 50 49 49 49 48 47 47 45 43 40 38 36 35 37 39 41 43 44 45 45 45 44 44 44 43 44 45 45 44 43 42 40 40 40 41 42 42 42 43 40
24 26 29 33 33 31 32 32 30 28 29 29 29 30 32 36 40 43 45 47 48 48 48 49 49 50 50 51 51 51 49 48 47 46 46 46 46 46 46 46 47 48 48 49 49 49 48 47 46 44 42 41 41 39 36 35 35 37 39 42 44 45 47 48 47 48 47 47 47 47 46 47 47 46 45 43 41 41 42 42 42 43 45 46 43
28 28 29 31 31 30 31 34 36 36 36 36 36 37 38 40 42 45 47 48 49 49 49 50 50 49 49 48 47 46 45 45 45 45 46 46 46 46 46 46 47 48 48 48 47 46 45 43 40 38 37 37 37 37 36 36 38 40 42 44 47 49 51 52 53 53 52 52 51 51 51 51 51 50 48 45 43 42 43 43 43 43 45 46 44
36 37 37 37 37 36 37 39 40 40 39 39 40 40 41 42 44 46 47 48 49 49 49 49 48 47 46 45 44 44 44 44 45 45 46 46 46 46 46 46 47 46 45 44 42 40 40 38 36 35 36 36 36 37 39 40 42 44 46 47 50 52 54 55 56 56 57 57 56 56 55 55 54 54 52 49 48 46 45 45 46 45 43 42 42
43 43 43 43 42 42 42 42 43 43 43 43 43 42 43 44 45 46 47 48 48 47 46 45 43 43 43 43 43 44 44 44 45 45 45 45 45 46 46 46 45 42 40 38 36 35 36 36 36 36 37 37 38 40 42 44 45 46 47 48 51 54 56 58 61 63 64 65 64 63 62 60 60 59 58 55 53 51 49 48 48 46 42 40 41
43 42 42 42 41 42 43 43 44 45 45 45 45 45 45 45 45 46 46 45 44 42 40 39 39 40 41 42 43 43 43 44 44 44 44 45 46 46 45 42 39 36 34 34 34 35 36 37 38 39 39 40 41 42 44 46 46 46 47 50 54 58 60 62 65 67 68 68 67 66 64 63 62 62 62 61 59 56 55 53 50 47 44 41 41
40 39 38 39 40 41 42 43 44 44 45 45 46 45 45 43 42 41 40 38 37 36 35 36 37 39 40 41 42 42 42 42 42 43 44 44 44 42 39 36 33 31 32 33 34 34 36 38 40 42 42 42 43 44 45 46 47 49 52 55 58 59 60 61 63 66 67 67 67 66 65 63 63 62 62 63 62 60 58 57 54 50 47 45 42
36 37 37 38 40 41 41 41 41 41 41 42 42 41 40 37 35 34 33 33 32 32 33 34 36 38 39 39 40 41 41 42 42 43 42 41 39 36 33 30 29 29 31 33 33 34 37 40 43 45 45 45 45 47 48 50 51 54 56 57 58 58 60 61 62 63 63 62 61 59 57 56 57 59 60 61 62 62 60 59 59 56 53 50 46
34 35 35 36 38 39 38 36 36 35 36 36 35 34 33 32 31 31 30 30 30 30 31 33 35 37 37 38 39 41 41 42 42 41 39 36 33 30 28 27 27 28 30 31 33 36 39 42 45 46 48 49 49 51 53 54 55 56 56 57 58 58 57 55 53 52 51 51 50 49 48 47 46 47 50 52 55 56 56 56 58 61 59 56 50
35 35 36 37 38 36 32 31 31 30 30 30 29 28 28 29 29 29 28 28 29 29 31 33 35 36 36 37 39 41 42 41 39 36 34 30 27 26 26 25 26 27 29 31 35 39 41 44 47 48 50 52 53 55 56 56 55 56 57 57 55 52 47 44 43 43 44 45 47 47 46 45 43 43 44 45 47 49 51 51 53 59 62 59 53
37 37 37 38 36 31 27 27 28 27 27 26 25 25 26 27 27 27 27 27 28 29 30 33 35 35 36 37 39 41 41 38 34 30 27 23 22 23 24 23 23 26 30 35 38 41 43 46 49 51 53 54 55 55 55 55 55 56 55 51 45 40 38 38 40 41 43 45 47 47 45 43 43 44 45 45 46 48 50 50 50 56 61 60 55
38 37 38 37 31 25 24 25 26 26 25 24 24 25 26 26 26 25 26 26 27 28 30 32 34 35 36 37 39 39 37 32 26 23 20 19 20 22 21 21 22 27 33 37 40 43 46 48 50 51 52 54 56 56 55 56 56 52 46 40 37 36 37 39 39 39 41 44 46 48 47 45 44 43 44 45 46 47 50 51 50 55 60 60 55
36 37 37 34 27 23 23 25 25 25 25 24 24 25 25 25 24 25 25 26 27 28 31 33 35 36 36 37 36 34 29 24 20 17 17 18 19 19 19 22 26 30 34 37 41 44 46 47 49 49 50 53 56 56 56 56 51 43 36 35 37 38 40 40 40 41 42 45 47 48 49 48 47 45 43 43 44 46 49 51 51 55 59 59 56
34 34 32 27 21 21 23 24 24 23 23 24 24 24 23 24 24 25 25 26 27 30 32 34 35 36 35 34 30 26 21 18 16 17 18 18 18 17 19 24 29 31 34 36 40 43 44 45 47 49 51 53 53 54 55 51 42 34 32 35 37 39 41 43 45 47 49 51 51 52 52 51 51 49 46 43 42 44 47 49 51 55 58 58 56
Wind_Direction
268 265 264 264 264 262 262 263 263 264 266 266 260 252 244 239 239 239 236 234 234 235 235 239 244 245 247 252 253 252 253 255 254 253 251 251 254 254 257 264 271 284 300 315 323 326 329 332 332 332 332 332 333 333 334 334 333 333 332 331 329 328 325 321 318 316 314 311 306 301 298 296 294 293 293 292 292 293 294 296 295 292 293 293 289
274 271 268 265 263 262 262 261 261 262 263 264 260 256 250 243 239 238 237 234 236 237 235 238 242 245 247 249 252 253 256 257 254 251 249 252 255 254 256 261 268 281 294 305 314 320 326 329 329 329 328 328 327 328 329 330 330 329 329 328 327 327 326 321 317 315 313 311 308 303 297 293 292 290 289 289 290 291 292 292 292 291 290 290 289
280 276 273 270 265 263 262 260 260 259 259 259 257 256 252 244 238 237 237 235 237 238 236 238 242 244 245 248 251 255 257 255 251 250 251 253 254 254 254 258 267 278 288 299 308 315 319 322 324 324 324 323 322 324 325 326 327 327 326 325 324 324 324 323 320 316 313 310 308 306 302 296 290 284 281 284 287 289 291 289 287 287 287 287 288
287 282 278 275 271 269 268 265 262 260 260 259 257 256 253 246 239 237 237 237 238 239 239 240 242 245 246 248 252 254 254 253 252 254 253 251 252 252 253 258 267 276 285 295 302 308 312 315 317 318 319 319 319 320 321 323 325 325 324 323 322 321 321 322 321 317 314 311 308 307 304 301 296 287 277 276 280 283 286 287 286 285 285 286 286
298 294 289 282 279 276 272 269 264 261 260 260 260 259 255 250 243 240 239 238 240 241 241 243 244 246 248 250 252 253 255 256 257 255 251 250 251 251 253 258 267 275 283 290 296 301 306 309 311 313 315 316 316 317 317 318 320 322 322 322 320 319 318 318 318 316 313 311 309 306 304 302 300 295 286 279 278 278 280 283 284 283 282 283 284
302 298 295 288 284 277 272 268 263 261 261 262 264 263 259 252 243 240 239 238 240 241 243 245 247 248 250 252 254 256 259 260 256 250 246 247 249 250 253 259 265 271 278 284 291 297 302 305 308 309 310 311 313 314 314 314 316 318 319 319 319 317 316 315 315 314 311 309 306 304 302 301 300 297 292 287 280 276 277 279 278 278 278 278 280
297 295 295 292 291 287 282 278 272 269 267 266 268 268 265 255 243 238 237 237 239 242 245 247 249 250 251 253 254 255 256 254 249 245 244 245 247 250 254 258 263 268 274 281 289 295 300 304 306 307 306 307 309 311 312 312 313 314 314 315 316 316 315 314 313 311 309 306 303 300 298 297 296 295 294 290 285 277 272 272 275 276 276 275 276
287 285 285 287 292 300 301 294 289 284 277 274 276 275 271 259 245 239 237 237 239 243 246 249 251 252 253 254 255 253 249 245 243 243 244 246 250 253 256 259 263 268 274 281 287 293 298 302 305 306 305 306 308 310 311 310 310 310 311 312 313 314 313 312 312 310 307 305 301 298 295 292 292 292 292 290 287 282 272 265 270 275 276 276 274
277 275 270 280 291 305 309 300 294 293 290 288 286 281 275 263 248 241 238 236 239 243 246 249 252 254 255 255 254 252 246 244 246 245 246 249 252 254 256 260 264 268 274 280 286 291 295 299 303 304 303 304 306 307 307 307 308 309 310 310 311 311 311 310 309 308 306 303 300 297 294 291 288 287 288 288 287 285 280 271 266 266 270 273 275
269 265 256 273 290 304 309 300 294 298 302 300 293 284 276 265 250 241 237 237 239 243 245 249 253 255 256 253 250 249 248 249 250 249 250 251 252 254 258 261 265 269 274 279 284 288 292 296 301 302 301 301 304 304 304 304 306 308 308 309 309 308 308 307 306 304 303 301 299 296 293 291 288 286 285 285 285 285 284 280 271 265 264 264 270
267 261 253 274 295 303 306 299 296 303 307 304 297 288 277 267 252 239 236 238 241 243 246 250 255 257 255 250 247 247 248 250 250 249 250 251 252 255 259 263 266 270 274 278 282 286 291 296 299 300 299 300 302 303 303 304 306 307 307 306 306 305 304 303 302 300 299 298 296 295 292 290 289 287 285 283 282 283 283 282 276 269 265 261 262
265 261 258 276 299 306 303 293 294 303 304 298 295 291 279 270 257 243 237 239 242 245 247 252 256 257 254 249 247 247 247 248 248 248 249 251 254 257 260 264 267 270 274 278 283 287 292 296 298 299 298 299 302 303 303 305 305 306 305 305 303 302 302 301 299 297 295 293 292 290 290 288 287 286 284 282 281 281 281 282 279 273 267 262 260
261 259 258 276 299 305 296 280 287 297 295 290 289 289 283 275 265 253 246 244 245 248 250 255 259 258 253 250 248 247 247 247 247 247 249 252 255 258 262 265 269 273 277 281 285 290 294 296 298 299 299 300 302 302 303 303 304 304 303 302 301 300 300 299 298 296 293 290 287 285 284 284 284 283 282 280 280 279 279 280 281 276 270 265 259
258 257 260 276 294 301 288 265 277 295 292 286 283 285 285 281 272 261 253 250 249 251 254 258 260 257 253 250 249 249 249 249 249 250 252 255 258 261 265 269 273 277 281 285 289 292 294 296 297 298 299 300 300 300 301 301 301 301 301 300 299 298 297 296 295 294 291 289 286 283 280 279 279 279 279 278 277 276 276 277 278 277 273 269 261
258 261 266 276 289 295 280 259 273 299 292 285 281 281 285 284 277 265 257 255 254 255 258 260 259 257 254 252 252 251 251 252 253 256 258 261 264 267 270 273 277 281 284 287 289 291 293 295 296 297 297 298 298 298 298 299 299 299 298 298 298 298 296 293 292 290 288 286 285 284 281 278 276 275 276 276 275 274 274 274 274 275 274 271 265
256 256 261 272 285 291 274 258 277 300 290 286 286 285 285 283 278 270 261 258 257 258 260 259 258 256 255 254 254 254 255 257 259 261 264 267 269 272 275 278 280 283 285 287 288 290 291 293 294 295 295 296 297 298 298 299 299 298 298 299 299 297 293 290 289 286 284 282 281 282 283 281 277 273 273 274 274 272 271 271 271 272 273 272 267
256 256 259 268 281 287 275 258 268 289 293 288 286 286 285 280 277 273 266 260 258 258 257 257 257 257 258 258 259 260 262 263 265 267 269 272 274 276 278 280 281 283 284 286 287 289 290 292 293 294 296 297 298 299 300 300 299 299 300 299 297 294 290 289 288 285 282 279 277 277 279 281 280 276 273 272 272 271 270 269 269 269 270 270 269
258 258 262 271 282 286 281 270 267 279 291 291 286 283 283 281 278 276 272 266 258 256 255 256 257 259 261 264 265 267 269 270 271 272 273 274 276 278 279 279 281 282 284 285 286 288 290 292 294 296 298 299 300 300 300 300 300 300 300 297 294 291 289 288 287 284 282 279 276 273 274 277 279 278 274 271 271 270 269 268 267 266 266 267 268
260 264 270 279 286 286 285 279 272 273 281 288 293 289 284 282 281 279 277 272 265 261 260 260 262 264 266 268 269 271 272 272 273 273 274 275 276 276 277 278 280 282 283 285 287 289 292 294 296 298 299 300 300 301 301 301 301 300 297 293 290 289 287 286 285 283 281 278 276 273 271 272 275 277 275 271 268 268 267 266 264 264 263 263 265
257 264 276 284 287 287 286 283 279 278 278 284 295 295 289 284 284 284 282 279 277 275 275 274 274 274 273 273 273 272 272 271 272 272 272 273 273 275 277 279 281 283 285 288 290 292 294 296 297 298 298 299 300 300 301 301 299 296 293 290 288 286 285 284 282 281 279 278 277 275 273 270 269 271 272 270 267 265 264 263 262 261 261 261 261
264 265 276 284 285 286 287 284 281 278 273 277 289 290 285 282 283 284 283 283 285 286 286 285 283 283 282 281 279 275 273 272 272 273 274 275 277 280 282 283 284 286 288 290 292 294 295 296 297 298 299 300 301 301 301 299 295 292 289 287 285 283 282 282 280 279 278 277 277 277 275 272 269 268 268 267 266 264 261 259 259 258 257 257 256
284 279 278 280 280 281 284 283 280 277 274 277 282 282 282 281 280 279 279 280 281 283 284 284 284 284 283 283 281 278 277 277 277 279 280 282 284 284 285 285 287 289 290 292 293 295 296 297 298 299 301 302 302 301 299 295 292 289 286 283 282 281 280 280 280 279 278 278 277 277 276 275 274 271 268 265 263 263 261 258 257 256 255 254 253
290 287 280 275 275 277 278 276 274 273 272 271 270 272 280 283 280 278 278 278 277 278 281 283 283 282 281 281 281 280 280 280 282 283 284 285 285 286 288 289 291 292 293 295 296 297 297 298 299 301 302 302 301 298 295 291 288 285 282 281 280 280 280 280 280 280 279 278 278 277 277 276 275 274 271 268 264 261 260 260 257 254 254 252 250
293 290 282 275 275 276 274 272 271 271 271 270 268 268 272 276 277 277 279 279 278 276 277 280 283 284 283 284 285 285 285 285 285 285 287 288 290 292 293 293 293 294 296 297 297 297 298 299 299 300 300 299 296 293 290 286 283 281 279 279 280 280 280 280 280 280 279 278 277 277 277 276 275 274 273 272 269 263 259 258 257 254 251 251 248
289 284 283 282 281 279 276 276 277 276 274 271 268 263 260 261 265 269 272 274 274 274 274 276 281 286 287 286 287 288 289 288 288 289 292 294 295 294 293 294 295 296 297 297 297 297 297 297 298 298 297 294 291 288 284 281 278 278 278 279 280 280 280 279 279 278 278 277 276 276 275 275 274 273 272 272 271 268 260 254 254 253 250 249 247
288 280 283 285 282 279 279 278 277 276 275 271 265 259 255 253 254 257 262 266 268 270 270 271 277 286 289 287 287 290 290 289 289 291 294 294 293 292 293 294 296 297 297 296 296 296 296 296 296 295 293 290 286 283 279 277 276 278 280 281 281 281 281 280 278 277 276 275 275 274 273 273 272 271 271 270 269 269 264 252 249 250 248 247 246
294 287 286 286 283 280 281 281 282 282 283 281 277 270 264 261 257 255 258 263 267 272 274 273 277 284 287 285 287 290 290 289 290 291 292 291 290 291 293 294 295 295 295 294 294 294 294 295 294 292 290 287 283 280 277 277 278 280 282 282 282 281 280 278 277 275 275 274 273 273 272 271 270 269 269 268 267 267 266 256 245 245 246 245 244
296 291 288 288 286 283 283 285 286 286 287 288 286 280 272 268 268 269 270 270 273 278 280 278 279 282 281 280 284 288 288 289 289 289 289 289 291 293 293 294 294 293 293 293 293 293 294 293 291 290 288 285 282 280 278 278 280 281 282 281 280 279 277 276 275 273 273 273 273 272 271 269 268 267 266 266 264 264 265 261 248 241 242 242 241
297 293 290 288 286 286 288 288 287 288 288 287 285 280 274 269 271 274 275 277 281 280 277 275 276 277 277 277 279 282 286 287 287 287 288 290 292 292 291 290 290 291 291 292 292 292 291 290 288 287 285 283 282 280 279 279 280 281 281 280 278 277 275 274 273 272 273 273 272 271 269 267 266 265 264 264 262 260 260 262 254 241 238 239 238
296 295 294 293 294 297 297 293 291 289 288 286 282 277 272 269 269 272 274 279 283 280 274 273 273 273 276 276 275 279 283 286 286 286 287 289 290 289 288 287 288 290 291 291 290 290 288 287 286 284 283 282 281 280 280 281 281 281 280 278 276 274 273 271 271 271 272 272 271 269 266 265 264 264 263 262 261 258 257 259 257 246 238 238 236
293 293 294 298 300 299 296 292 288 285 283 281 277 272 270 270 272 273 275 279 282 278 273 272 271 271 272 272 272 276 280 282 284 284 285 287 288 287 286 288 289 290 289 289 288 287 286 285 284 283 283 283 283 283 284 284 283 282 280 278 276 274 272 271 270 270 270 270 269 266 264 262 262 262 262 260 259 257 255 257 257 250 240 237 235
295 296 298 298 296 291 285 281 279 276 273 270 267 265 265 268 271 274 275 278 277 273 269 268 267 267 267 266 269 275 277 277 279 281 284 288 288 287 287 289 289 288 287 286 285 284 284 284 284 284 285 285 286 286 286 285 283 281 278 276 275 273 272 270 269 269 269 268 266 263 261 261 260 260 260 258 257 255 254 254 254 250 242 237 235
300 301 299 294 289 282 275 273 273 269 262 257 257 259 261 264 267 270 272 272 268 262 260 260 260 262 262 262 269 277 278 275 278 283 287 290 289 289 289 289 288 287 286 285 284 284 284 284 285 285 286 286 286 285 284 283 280 278 275 273 272 271 270 269 268 268 268 266 263 261 260 258 257 256 257 257 256 255 253 252 252 251 244 238 234
298 298 295 289 282 277 274 275 272 265 259 258 262 263 259 258 260 262 263 259 253 248 247 248 251 256 258 262 271 279 278 277 281 285 288 289 289 290 290 288 287 287 286 285 285 284 285 285 285 286 285 285 284 283 282 280 278 276 274 272 270 268 268 268 268 268 266 264 261 260 259 257 255 253 253 254 254 253 253 251 251 251 246 240 235
296 296 292 285 277 274 274 273 268 264 264 265 265 261 255 254 256 256 252 245 239 238 241 247 256 261 265 269 276 279 279 280 284 285 286 287 288 288 288 287 287 287 286 286 285 285 285 285 285 284 283 282 282 281 279 277 275 274 272 270 269 268 268 267 267 266 266 264 261 259 258 256 254 251 250 251 252 253 253 252 251 250 247 241 236
293 292 288 282 276 271 268 265 264 265 265 262 258 253 249 248 247 244 241 240 242 248 258 266 271 273 275 278 281 282 283 284 285 285 286 286 286 286 287 287 288 287 287 286 286 285 284 283 283 282 281 281 281 279 278 276 275 274 273 271 269 268 267 267 267 267 267 266 262 258 256 255 253 249 247 248 251 253 253 253 252 251 248 242 236
291 285 280 276 272 267 264 264 262 260 256 251 245 241 239 241 243 245 253 265 271 274 275 276 277 279 281 283 284 285 285 285 285 285 286 285 285 286 287 288 288 288 286 286 285 284 283 283 282 281 280 280 280 279 278 278 277 276 274 271 270 269 269 269 270 270 269 267 264 259 256 254 252 250 249 250 252 254 253 252 251 250 249 244 237
293 289 282 276 267 259 255 255 253 250 246 243 242 243 248 261 271 276 282 284 283 281 280 280 281 282 284 285 286 285 285 284 285 285 285 286 287 288 289 289 289 287 286 286 285 285 285 284 283 282 280 280 281 280 280 279 277 275 273 272 272 271 272 272 272 271 270 268 265 261 257 255 254 253 253 253 253 254 253 251 249 248 248 246 241
295 294 291 285 276 266 260 263 272 279 280 277 277 281 285 289 289 288 287 285 283 282 282 282 284 285 286 285 284 284 284 285 286 287 288 289 290 291 292 291 290 289 289 288 288 287 287 285 284 283 282 282 282 282 281 279 277 275 274 274 274 274 273 273 272 272 270 267 265 262 259 257 257 256 256 255 254 254 253 253 251 248 246 245 243
297 298 297 295 293 290 286 288 295 301 300 296 293 290 289 288 287 286 285 283 282 282 282 284 285 286 285 284 284 285 286 288 289 290 291 292 293 293 293 292 291 290 290 289 288 287 286 284 284 284 284 284 284 284 282 279 277 277 276 276 275 274 274 274 274 273 271 269 266 263 260 258 257 257 257 256 255 253 252 253 252 250 246 244 242
300 299 300 299 299 298 297 297 299 299 296 292 289 287 285 285 284 284 283 282 282 282 284 285 285 285 285 285 286 287 288 289 290 291 292 293 293 293 293 292 292 291 290 288 287 286 285 286 286 285 285 284 283 282 280 279 278 277 276 276 275 275 275 275 275 274 273 272 270 267 264 260 258 256 256 257 256 253 251 250 250 250 248 244 240
302 301 301 300 300 300 300 299 298 295 291 288 286 285 285 284 284 284 283 283 283 284 284 284 285 285 286 286 287 287 288 290 292 293 294 295 295 295 295 294 293 292 290 288 287 287 287 287 286 284 282 281 280 279 279 279 278 277 278 278 278 278 278 277 277 276 274 273 272 269 266 263 260 257 256 255 255 254 251 248 247 248 248 244 238
298 297 296 295 296 296 295 294 292 289 286 285 286 286 285 284 283 282 282 283 283 284 284 285 285 285 285 286 287 289 291 293 294 296 298 298 298 297 295 294 293 291 290 289 289 288 287 286 284 282 280 280 281 281 281 281 282 284 284 283 282 280 279 277 276 275 273 271 269 267 265 262 260 258 256 255 253 251 249 247 245 244 244 241 237
289 288 286 285 285 285 285 285 285 284 283 283 283 283 283 282 281 280 281 282 283 285 285 285 285 285 286 288 290 292 294 297 299 301 300 298 296 294 293 292 291 291 291 291 290 288 286 285 284 282 282 283 285 286 286 287 288 288 287 285 283 281 279 277 275 273 271 269 267 265 264 261 259 257 255 254 253 250 245 243 242 242 241 238 235
283 283 284 282 280 279 281 282 283 283 283 283 283 283 283 282 282 282 283 284 286 287 287 287 286 287 289 292 294 297 299 301 302 300 298 296 294 293 292 293 293 292 291 290 289 288 286 285 285 286 288 290 291 291 290 290 290 290 288 286 284 282 280 278 275 273 271 269 267 266 264 261 257 254 253 252 251 249 245 241 238 239 239 236 232
285 287 289 289 286 284 284 285 286 285 285 284 284 284 283 283 284 286 287 289 290 289 287 287 288 290 293 296 298 300 302 302 301 298 296 296 295 295 296 296 294 292 289 288 288 287 286 287 289 292 294 294 294 293 293 293 293 292 290 289 287 284 282 278 274 271 268 267 266 264 263 260 257 253 250 248 248 248 246 241 235 233 233 232 228
287 288 289 289 288 285 284 286 288 288 287 286 285 285 285 286 288 290 292 292 291 288 287 287 289 292 297 300 301 302 302 300 298 297 297 298 299 299 297 295 293 291 289 288 288 288 290 294 296 296 297 297 296 296 297 297 296 294 293 292 289 284 279 273 268 266 265 264 262 260 258 256 254 251 247 244 243 242 242 239 231 226 226 227 224
281 282 283 284 283 282 285 291 294 293 291 289 287 286 286 288 290 293 294 292 289 288 288 289 291 296 300 302 302 301 299 298 297 298 299 300 298 295 293 293 295 295 293 292 293 295 298 300 299 299 299 299 298 299 300 300 299 299 298 295 288 280 274 270 268 265 262 262 261 258 255 250 246 246 244 240 238 237 237 236 229 221 221 222 220
275 276 278 281 283 288 293 296 295 293 291 289 289 288 289 292 295 295 293 291 289 289 290 292 295 299 302 302 300 298 297 298 299 298 298 296 293 291 292 295 297 296 296 298 299 301 302 301 301 301 302 302 303 303 303 303 304 303 300 294 286 280 277 275 272 267 263 261 259 257 255 248 242 241 241 238 235 232 232 234 228 219 216 217 216
271 271 274 279 287 294 297 296 294 291 288 288 289 290 293 297 297 295 293 293 293 293 294 297 299 302 303 300 297 296 297 298 296 293 291 290 291 294 297 298 297 298 300 303 304 305 305 304 305 306 307 306 307 307 307 307 307 303 296 288 284 283 282 279 277 274 269 263 257 254 252 248 244 240 238 237 233 229 229 230 224 215 212 212 212
267 266 270 279 290 295 295 295 292 287 285 287 291 294 298 298 297 297 298 298 297 298 299 301 304 305 303 299 297 297 296 291 289 290 291 290 291 292 295 296 298 301 303 305 308 309 310 310 310 310 309 308 307 307 307 307 304 298 292 288 288 289 289 288 286 283 277 268 260 253 248 245 243 240 237 235 232 228 228 227 219 210 207 208 209